This demonstration page uses our WeatherBlox Daily Observations layout. Learn more.

40.92945, -100.16068

Hourly Observations for June 18, 2017

Temp ( °F °C ) Dew Point ( °F °C ) Humidity (%) Winds ( mph kmh ) Pressure ( in mb ) Visibility ( mi km ) Precip ( " mm )
12:15 am 00:15 Clear 61 16 56 13.5 85 85 NNW 7 11 29.85 1011 10 16.0934 0 0
12:35 am 00:35 Partly Cloudy 61 16.3 55 12.5 78 78 NNW 6 9 29.88 1012 10 16.0934 0 0
12:55 am 00:55 Partly Cloudy 60 15.7 55 12.6 82 82 NW 6 9 29.91 1013 10 16.0934 0 0
1:15 am 01:15 Partly Cloudy 61 15.9 55 12.5 80 80 NW 9 15 29.88 1012 10 16.0934 0 0
1:35 am 01:35 Clear 61 15.9 53 11.8 77 77 NNW 9 15 29.88 1012 10 16.0934 0 0
1:55 am 01:55 Clear 61 16 51 10.7 71 71 NW 8 13 29.94 1014 10 16.0934 0 0
2:15 am 02:15 Clear 62 16.7 47 8.6 59 59 NNW 12 19 29.91 1013 10 16.0934 0 0
2:35 am 02:35 Clear 60 15.6 47 8.6 63 63 NNW 10 17 29.94 1014 10 16.0934 0 0
2:55 am 02:55 Clear with Nearby Thunderstorms 59 15.2 48 8.8 66 66 NNW 9 15 29.94 1014 10 16.0934 0 0
3:15 am 03:15 Clear 58 14.4 47 8.6 68 68 NW 8 13 29.94 1014 10 16.0934 0 0
3:35 am 03:35 Clear 56 13.1 47 8.6 74 74 NW 8 13 29.94 1014 10 16.0934 0 0
3:55 am 03:55 Clear 53 11.5 48 8.7 83 83 NW 7 11 30 1016 10 16.0934 0 0
4:15 am 04:15 Clear 52 11.1 47 8.5 84 84 WNW 6 9 30 1016 10 16.0934 0 0
4:35 am 04:35 Clear 52 11 48 8.8 86 86 W 8 13 30 1016 10 16.0934 0 0
4:55 am 04:55 Clear 53 11.5 47 8.6 83 83 W 7 11 30.03 1017 10 16.0934 0 0
5:15 am 05:15 Clear 52 10.9 47 8.2 84 84 WSW 7 11 30.03 1017 10 16.0934 0 0
5:35 am 05:35 Clear 51 10.7 46 8 84 84 W 5 7 30.03 1017 10 16.0934 0 0
5:55 am 05:55 Clear 51 10.3 46 8 86 86 W 7 11 30.03 1017 10 16.0934 0 0
6:15 am 06:15 Sunny 50 10 46 8 88 88 W 6 9 30.06 1018 10 16.0934 0 0
6:35 am 06:35 Sunny 51 10.5 47 8.3 86 86 WNW 5 7 30.03 1017 10 16.0934 0 0
6:55 am 06:55 Sunny 52 11.3 48 8.7 84 84 W 5 7 30.03 1017 10 16.0934 0 0
7:15 am 07:15 Sunny 54 12.3 49 9.3 82 82 WNW 6 9 30.03 1017 10 16.0934 0 0
7:35 am 07:35 Sunny 56 13.2 49 9.3 77 77 WNW 8 13 30.03 1017 10 16.0934 0 0
7:55 am 07:55 Sunny 57 13.9 49 9.4 74 74 WNW 7 11 30 1016 10 16.0934 0 0
8:15 am 08:15 Sunny 59 15.1 50 10 72 72 WNW 7 11 30 1016 10 16.0934 0 0
8:35 am 08:35 Sunny 60 15.8 50 9.9 68 68 WNW 9 15 30 1016 10 16.0934 0 0
8:55 am 08:55 Sunny 62 16.7 51 10.3 66 66 WNW 6 9 30 1016 10 16.0934 0 0
9:15 am 09:15 Sunny 64 17.6 51 10.6 64 64 NW 5 7 29.97 1015 10 16.0934 0 0
9:35 am 09:35 Sunny 66 18.7 51 10.4 59 59 NW 6 9 29.97 1015 10 16.0934 0 0
9:55 am 09:55 Sunny 67 19.5 51 10.8 57 57 NW 6 9 29.97 1015 10 16.0934 0 0
10:15 am 10:15 Sunny 69 20.5 51 10.8 54 54 NW 6 9 29.94 1014 10 16.0934 0 0
10:35 am 10:35 Sunny 70 21.2 51 10.4 50 50 WNW 7 11 29.94 1014 10 16.0934 0 0
10:55 am 10:55 Sunny 71 21.7 50 10.2 48 48 NW 6 9 29.94 1014 10 16.0934 0 0
11:15 am 11:15 Sunny 73 22.5 50 10 45 45 WNW 6 9 29.94 1014 10 16.0934 0 0
11:35 am 11:35 Sunny 73 23 49 9.2 42 42 W 8 13 29.94 1014 10 16.0934 0 0
11:55 am 11:55 Sunny 74 23.4 50 9.8 42 42 W 3 6 29.94 1014 10 16.0934 0 0
12:15 pm 12:15 Sunny 75 23.7 49 9.4 40 40 W 12 19 29.88 1012 10 16.0934 0 0
12:35 pm 12:35 Sunny 76 24.3 47 8.3 36 36 WSW 9 15 29.88 1012 10 16.0934 0 0
12:55 pm 12:55 Sunny 76 24.7 46 7.7 34 34 W 9 15 29.88 1012 10 16.0934 0 0
1:15 pm 13:15 Sunny 77 25.1 45 7.2 32 32 WNW 10 17 29.88 1012 10 16.0934 0 0
1:35 pm 13:35 Sunny 78 25.4 45 7.1 31 31 W 9 15 29.88 1012 10 16.0934 0 0
1:55 pm 13:55 Sunny 79 25.9 45 7.3 31 31 NNW 13 20 29.85 1011 10 16.0934 0 0
2:15 pm 14:15 Sunny 79 26.1 44 6.8 29 29 W 14 22 29.85 1011 10 16.0934 0 0
2:35 pm 14:35 Sunny 80 26.9 46 7.5 29 29 WNW 14 22 29.83 1010 10 16.0934 0 0
2:55 pm 14:55 Partly Cloudy 81 27.2 45 7.4 29 29 NNW 13 20 29.83 1010 10 16.0934 0 0
3:15 pm 15:15 Partly Cloudy 81 27.3 45 7.4 28 28 NW 9 15 29.8 1009 10 16.0934 0 0
3:35 pm 15:35 Partly Cloudy 80 26.5 43 6.2 27 27 NW 8 13 29.8 1009 10 16.0934 0 0
3:55 pm 15:55 Partly Cloudy 79 26.3 44 6.7 29 29 NW 7 11 29.8 1009 10 16.0934 0 0
4:15 pm 16:15 Partly Cloudy 82 27.9 45 7.2 27 27 WNW 12 19 29.8 1009 10 16.0934 0 0
4:35 pm 16:35 Partly Cloudy 80 26.5 45 7.3 30 30 NW 9 15 29.8 1009 10 16.0934 0 0
4:55 pm 16:55 Partly Cloudy 81 27.1 47 8.1 30 30 NW 9 15 29.8 1009 10 16.0934 0 0
5:15 pm 17:15 Mostly Cloudy 80 26.5 44 6.8 29 29 NW 6 9 29.8 1009 10 16.0934 0 0
5:35 pm 17:35 Cloudy 79 26 45 7.4 31 31 NNW 10 17 29.83 1010 10 16.0934 0 0
5:55 pm 17:55 Mostly Cloudy 79 25.9 47 8.5 33 33 N 6 9 29.83 1010 10 16.0934 0 0
6:15 pm 18:15 Sunny 79 26.2 46 8 32 32 Calm 29.83 1010 10 16.0934 0 0
6:35 pm 18:35 Partly Cloudy 77 25 49 9.3 37 37 NE 6 9 29.83 1010 10 16.0934 0 0
6:55 pm 18:55 Cloudy 76 24.6 49 9.7 39 39 NE 5 7 29.83 1010 10 16.0934 0 0
7:15 pm 19:15 Cloudy 76 24.5 49 9.4 38 38 NNE 3 6 29.83 1010 10 16.0934 0 0
7:35 pm 19:35 Cloudy 76 24.2 52 11.1 44 44 NE 5 7 29.83 1010 10 16.0934 0 0
7:55 pm 19:55 Mostly Cloudy 75 24 54 12.3 48 48 E 3 6 29.83 1010 10 16.0934 0 0
8:15 pm 20:15 Mostly Cloudy 73 23 52 11.3 48 48 ENE 7 11 29.83 1010 10 16.0934 0 0
8:35 pm 20:35 Mostly Cloudy 73 22.6 51 10.5 46 46 ENE 6 9 29.85 1011 10 16.0934 0 0
8:55 pm 20:55 Mostly Cloudy with Light Drizzle 72 22.1 52 11.1 50 50 E 3 6 29.85 1011 10 16.0934 0 0
9:15 pm 21:15 Cloudy with Light Rain 71 21.6 52 11.2 52 52 ENE 6 9 29.85 1011 10 16.0934 0 0
9:35 pm 21:35 Mostly Cloudy 69 20.6 52 11.2 55 55 ENE 6 9 29.88 1012 10 16.0934 0 0
9:55 pm 21:55 Cloudy 69 20.6 51 10.8 54 54 NNE 6 9 29.88 1012 10 16.0934 0 0

Powered by AerisWeather